Pagina principale
METAR-TAF:

METAR-TAF

Aeroporti :

Morristown, New Jersey, Stati Uniti

latitudine: 40-48N, longitudine: 074-25W, altezza: 57 m

Osservazione

Il bollettino è stato emesso 27 minuti fa, alle 07:55 UTC
Vento calmo
Temperature 21°C
Umidità 100%
Pressione 1016 hPa
Visibilità: 11.3 km
Cielo sereno

METAR: KMMU 160755Z AUTO 00000KT 7SM CLR 21/21 A3000 RMK AO2

Ora: 04:22 (08:22 UTC)


TAF: mancante

Osservazioni e previsioni meteorologiche di più di 4000 aeroporti (messaggi METAR e TAF).

Le stazioni disponibili sono rappresentate dai dischi gialli e rossi sulla carta.

Puntare il mouse per vedere il nome della stazione.

Clicca sopra per visualizzare le osservazioni e previsioni meteorologiche.

Per cambiare la mappa : fare clic sui pulsanti verdi con una croce nera per ingrandire, il pulsante verde con un trattino per diminuire, o sulla freccia verde per le mappe adiacenti.


METAR-TAF: